Location: Caltech
(34.1382°N, 118.1253°W)
Time: 18:58:56
(UTC-07:00)

ASTRO E2 - Visible Passes

Search period start: 28 May 2017 00:00
Search period end: 07 June 2017 00:00
Orbit: 515 x 522 km, 31.4° (Epoch: 27 May)

Date Brightness Start Highest point End Pass type
(mag) Time Alt. Az. Time Alt. Az. Time Alt. Az.
28 May 4.4 21:23:53 10° WSW 21:26:42 19° SSW 21:27:33 17° S visible
29 May 4.7 21:07:14 10° WSW 21:09:44 16° SSW 21:11:27 13° S visible
30 May 5.0 20:50:40 10° WSW 20:52:45 14° SSW 20:54:50 10° S visible
31 May 5.1 20:34:19 10° SW 20:35:45 12° SSW 20:37:13 10° S visible
